Beaufort, SC

11:35 PM EST on February 26, 2017 (GMT -0500)
Beaufort Marine Corps Air Station

Weather History for KNBC - December, 2014

Change the Weather History Date:

Tuesday, December 9, 2014

  Actual Average Record
Temperature  
Mean Temperature 49 °F -  
Max Temperature 55 °F 64 °F 82 °F (1943)
Min Temperature 43 °F 43 °F 21 °F (1968)
Degree Days  
Heating Degree Days 16    
Moisture  
Dew Point 39 °F    
Average Humidity 72    
Maximum Humidity 86    
Minimum Humidity 53    
Precipitation  
Precipitation 0.00 in - - ()
Sea Level Pressure  
Sea Level Pressure 30.05 in    
Wind  
Wind Speed 11 mph (NW)    
Max Wind Speed 16 mph    
Max Gust Speed 20 mph    
Visibility 10 miles    
Events      
Averages and records for this station are not official NWS values.
T = Trace of Precipitation, MM = Missing Value Source: NWS Daily Summary

Daily Weather History Graph

Daily Weather History Graph

Search for Another Location

Airport or City:

Trip Planner

Search our weather history database for the weather conditions in past years. The results will help you decide how hot, cold, wet, or windy it might be!

Date:

Astronomy

Dec. 09, 2014 Rise Set
Actual Time 7:12 AM EST 5:17 PM EST
Civil Twilight 6:45 AM EST 5:44 PM EST
Nautical Twilight 6:15 AM EST 6:15 PM EST
Astronomical Twilight 5:45 AM EST 6:45 PM EST
Moon 8:28 PM EST (12/9) 9:30 AM EST (12/9)
Length of Visible Light 10h 58m
Length of Day
10h 04m
Waning Gibbous, 90% of the Moon is Illuminated
Dec 9
Waning Gibbous
Dec 14
Last Quarter
Dec 21
New
Dec 28
First Quarter
Jan 4
Full

Hourly Weather History & Observations

Time (EST) Temp. Windchill Dew Point Humidity Pressure Visibility Wind Dir Wind Speed Gust Speed Precip Events Conditions
12:34 AM 45.0 °F 38.5 °F 39.9 °F 82% 30.12 in 10.0 mi NNW 13.8 mph - N/A   Overcast
12:56 AM 44.1 °F 38.1 °F 39.9 °F 85% 30.12 in 10.0 mi NNW 11.5 mph - N/A   Overcast
1:56 AM 45.0 °F 39.3 °F 39.9 °F 82% 30.10 in 10.0 mi NNW 11.5 mph - N/A   Overcast
2:56 AM 44.1 °F 39.0 °F 39.9 °F 85% 30.09 in 10.0 mi NNW 9.2 mph - N/A   Overcast
3:56 AM 44.1 °F 37.4 °F 39.9 °F 85% 30.08 in 10.0 mi NW 13.8 mph - N/A   Overcast
4:56 AM 43.0 °F 36.8 °F 39.0 °F 86% 30.07 in 10.0 mi NW 11.5 mph - N/A   Overcast
5:44 AM 44.1 °F 38.6 °F 39.0 °F 82% 30.07 in 10.0 mi NW 10.4 mph - N/A   Overcast
5:56 AM 44.1 °F 39.0 °F 39.0 °F 82% 30.07 in 10.0 mi NNW 9.2 mph - N/A   Overcast
6:18 AM 44.1 °F - 39.0 °F 82% 30.07 in - North - - N/A   Unknown
6:37 AM 44.1 °F 37.4 °F 39.0 °F 82% 30.07 in 10.0 mi NW 13.8 mph 19.6 mph N/A   Mostly Cloudy
6:56 AM 44.1 °F 39.0 °F 39.0 °F 82% 30.07 in 10.0 mi NW 9.2 mph - N/A   Mostly Cloudy
7:03 AM 44.1 °F 39.0 °F 39.0 °F 82% 30.07 in 10.0 mi NW 9.2 mph - N/A   Overcast
7:56 AM 44.1 °F 37.7 °F 37.9 °F 79% 30.07 in 10.0 mi NW 12.7 mph 19.6 mph N/A   Overcast
8:56 AM 44.1 °F 37.7 °F 37.9 °F 79% 30.08 in 10.0 mi NW 12.7 mph - N/A   Overcast
9:56 AM 44.1 °F 36.8 °F 37.9 °F 79% 30.09 in 10.0 mi NW 16.1 mph - N/A   Overcast
10:56 AM 46.0 °F 39.3 °F 37.9 °F 73% 30.06 in 10.0 mi NW 16.1 mph - N/A   Mostly Cloudy
11:56 AM 48.0 °F - 37.9 °F 68% 30.04 in 10.0 mi NW 11.5 mph - N/A   Mostly Cloudy
12:28 PM 50.0 °F - 39.0 °F 66% 30.02 in 10.0 mi WNW 13.8 mph 19.6 mph N/A   Scattered Clouds
12:56 PM 52.0 °F - 39.0 °F 61% 30.01 in 10.0 mi NW 9.2 mph - N/A   Partly Cloudy
1:56 PM 55.9 °F - 39.9 °F 55% 29.97 in 10.0 mi Variable 5.8 mph - N/A   Partly Cloudy
2:56 PM 55.9 °F - 39.0 °F 53% 29.97 in 10.0 mi West 10.4 mph - N/A   Scattered Clouds
3:56 PM 55.9 °F - 39.0 °F 53% 29.98 in 10.0 mi WNW 9.2 mph - N/A   Mostly Cloudy
4:56 PM 55.0 °F - 39.9 °F 57% 29.99 in 10.0 mi WNW 4.6 mph - N/A   Mostly Cloudy
5:56 PM 52.0 °F - 42.1 °F 69% 29.99 in 10.0 mi West 4.6 mph - N/A   Mostly Cloudy
6:56 PM 53.1 °F - 42.1 °F 66% 29.99 in 10.0 mi WNW 5.8 mph - N/A   Overcast
7:56 PM 53.1 °F - 39.9 °F 61% 30.01 in 10.0 mi WNW 6.9 mph - N/A   Overcast
8:56 PM 52.0 °F - 39.9 °F 63% 30.01 in 10.0 mi WNW 6.9 mph - N/A   Overcast
9:56 PM 52.0 °F - 39.0 °F 61% 30.02 in 10.0 mi WNW 10.4 mph - N/A   Overcast
10:56 PM 51.1 °F - 37.9 °F 61% 30.03 in 10.0 mi WNW 8.1 mph - N/A   Overcast
11:56 PM 50.0 °F - 37.0 °F 61% 30.04 in 10.0 mi NW 10.4 mph - N/A   Partly Cloudy